Location: Cornospital
(48.0620°N, 3.3837°W)
Time: 20:59:25
(UTC+00:00)

Meteor 2-20 - Pass Details

Date: 17 June 2021
Orbit: 939 x 958 km, 82.5° (Epoch: 03 August)

Event Time Altitude Azimuth Distance (km) Brightness Sun altitude
Rises 20:57:57 0° 185° (S) 3,608 7.1 -6.1°
Reaches altitude 10° 21:00:26 10° 185° (S) 2,664 6.4 -6.3°
Maximum altitude 21:06:32 85° 98° (E) 955 4.5 -7.0°
Drops below altitude 10° 21:12:39 10° 11° (N) 2,671 7.4 -7.7°
Sets 21:15:08 0° 11° (N) 3,618 8.1 -8.0°
